Weather History for Del Rio, TX

Change the Weather History Date:

Friday, July 26, 2013

  Actual Average Record
Temperature  
Mean Temperature 90 °F 86 °F  
Max Temperature 101 °F 97 °F 108 °F (1944)
Min Temperature 79 °F 76 °F 66 °F (1913)
Degree Days  
Heating Degree Days 0 0  
Month to date heating degree days 0 0  
Since 1 June heating degree days 0 0  
Since 1 July heating degree days 0 0  
Cooling Degree Days 25 21  
Month to date cooling degree days 533 540  
Year to date cooling degree days 2064 1870  
Since 1 June cooling degree days 1158 1111  
Growing Degree Days 40 (Base 50)    
Moisture  
Dew Point 67 °F    
Average Humidity 51    
Maximum Humidity 74    
Minimum Humidity 27    
Precipitation  
Precipitation 0.00 in 0.06 in 1.52 in (1913)
Month to date precipitation 2.77 1.51  
Year to date precipitation 7.75 11.06  
Sea Level Pressure  
Sea Level Pressure 29.90 in    
Wind  
Wind Speed 6 mph (SE)    
Max Wind Speed 14 mph    
Max Gust Speed 18 mph    
Visibility 10 miles    
Events      
T = Trace of Precipitation, MM = Missing Value Source: NWS Daily Summary

Daily Weather History Graph

Daily Weather History Graph

Search for Another Location

Airport:

Trip Planner

Search our weather history database for the weather conditions in past years. The results will help you decide how hot, cold, wet, or windy it might be!

Date:

Astronomy

Jul. 26, 2013 Rise Set
Actual Time 7:00 AM CDT 8:39 PM CDT
Civil Twilight 6:34 AM CDT 9:05 PM CDT
Nautical Twilight 6:03 AM CDT 9:36 PM CDT
Astronomical Twilight 5:30 AM CDT 10:09 PM CDT
Moon 11:23 PM CDT (7/26) 11:12 AM CDT (7/26)
Length of Visible Light 14h 31m
Length of Day
13h 39m
Waning Gibbous, 80% of the Moon is Illuminated
Jul 26
Waning Gibbous
Jul 29
Last Quarter
Aug 6
New
Aug 14
First Quarter
Aug 20
Full

Hourly Weather History & Observations

Time (CDT) Temp. Heat Index Dew Point Humidity Pressure Visibility Wind Dir Wind Speed Gust Speed Precip Events Conditions
12:53 AM 87.1 °F 88.3 °F 64.0 °F 46% 29.92 in 10.0 mi East 10.4 mph - N/A   Clear
1:53 AM 86.0 °F 90.1 °F 69.1 °F 57% 29.93 in 10.0 mi ESE 10.4 mph - N/A   Clear
2:53 AM 84.9 °F 90.1 °F 71.1 °F 63% 29.92 in 10.0 mi ESE 9.2 mph - N/A   Clear
3:53 AM 84.0 °F 88.4 °F 70.0 °F 63% 29.91 in 10.0 mi SE 9.2 mph - N/A   Clear
4:53 AM 82.0 °F 85.9 °F 70.0 °F 67% 29.91 in 10.0 mi SE 6.9 mph - N/A   Clear
5:53 AM 81.0 °F 84.1 °F 69.1 °F 67% 29.92 in 10.0 mi ESE 5.8 mph - N/A   Clear
6:53 AM 79.0 °F - 70.0 °F 74% 29.94 in 10.0 mi East 6.9 mph - N/A   Clear
7:53 AM 79.0 °F - 69.1 °F 72% 29.94 in 10.0 mi ESE 10.4 mph - N/A   Clear
8:53 AM 82.0 °F 85.9 °F 70.0 °F 67% 29.95 in 10.0 mi ESE 11.5 mph - N/A   Clear
9:53 AM 84.0 °F 88.4 °F 70.0 °F 63% 29.96 in 10.0 mi SE 8.1 mph - N/A   Clear
10:53 AM 86.0 °F 91.5 °F 71.1 °F 61% 29.96 in 10.0 mi SE 9.2 mph - N/A   Clear
11:53 AM 89.1 °F 95.0 °F 71.1 °F 55% 29.95 in 10.0 mi SSE 8.1 mph - N/A   Clear
12:53 PM 91.0 °F 97.6 °F 71.1 °F 52% 29.94 in 10.0 mi SE 10.4 mph - N/A   Clear
1:53 PM 93.9 °F 100.8 °F 71.1 °F 47% 29.91 in 10.0 mi ESE 9.2 mph - N/A   Clear
2:53 PM 97.0 °F 103.5 °F 70.0 °F 41% 29.88 in 10.0 mi SSE 6.9 mph - N/A   Clear
3:53 PM 98.1 °F 102.4 °F 66.9 °F 36% 29.86 in 10.0 mi Variable 3.5 mph - N/A   Clear
4:53 PM 100.0 °F 104.2 °F 66.0 °F 33% 29.83 in 10.0 mi SE 4.6 mph - N/A   Clear
5:53 PM 100.0 °F 101.8 °F 63.0 °F 29% 29.82 in 10.0 mi SE 3.5 mph - N/A   Clear
6:53 PM 100.0 °F 101.2 °F 61.0 °F 28% 29.81 in 10.0 mi East 8.1 mph - N/A   Clear
7:53 PM 98.1 °F 98.6 °F 61.0 °F 29% 29.82 in 10.0 mi ESE 4.6 mph - N/A   Clear
8:53 PM 95.0 °F 95.2 °F 61.0 °F 32% 29.83 in 10.0 mi Calm Calm - N/A   Clear
9:53 PM 93.0 °F 94.6 °F 64.0 °F 38% 29.84 in 10.0 mi Calm Calm - N/A   Clear
10:53 PM 91.0 °F 92.6 °F 64.0 °F 41% 29.87 in 10.0 mi Calm Calm - N/A   Clear
11:53 PM 90.0 °F 91.7 °F 64.9 °F 43% 29.87 in 10.0 mi Calm Calm - N/A   Clear